| time (UTC) | temp C | wind direction | speed KPH | gust KPH | rain 1hr cm | rain 24hr cm | rain mn cm | humidity % | barometer mb |
| 20260903011129 | 26 | 89 | 0.0 | 3.2 | 0.00 | 0.00 | 0.00 | 89 | 1014.5 |
| 20260903010624 | 26 | 141 | 0.0 | 3.2 | 0.00 | 0.00 | 0.00 | 90 | 1014.3 |
| 20260903010123 | 26 | 119 | 0.0 | 1.6 | 0.00 | 0.00 | 0.00 | 90 | 1014.3 |
| 20260903005618 | 26 | 117 | 0.0 | 1.6 | 0.00 | 0.00 | 0.00 | 89 | 1014.2 |
| 20260903005114 | 26 | 116 | 1.6 | 3.2 | 0.00 | 0.00 | 0.00 | 89 | 1014.0 |
| 20260903004613 | 26 | 142 | 0.0 | 1.6 | 0.00 | 0.00 | 0.00 | 88 | 1014.1 |
| 20260903004108 | 26 | 63 | 1.6 | 3.2 | 0.00 | 0.00 | 0.00 | 88 | 1014.1 |
| 20260903003604 | 26 | 37 | 0.0 | 1.6 | 0.00 | 0.00 | 0.00 | 89 | 1014.1 |
| 20260903003059 | 26 | 124 | 0.0 | 1.6 | 0.00 | 0.00 | 0.00 | 89 | 1014.0 |
| 20260903002554 | 27 | 129 | 0.0 | 1.6 | 0.00 | 0.00 | 0.00 | 89 | 1014.1 |
| 20260903002048 | 27 | 104 | 0.0 | 3.2 | 0.00 | 0.00 | 0.00 | 89 | 1014.2 |
| 20260903001543 | 27 | 104 | 0.0 | 0.0 | 0.00 | 0.00 | 0.00 | 89 | 1014.1 |
| 20260903001043 | 27 | 113 | 0.0 | 1.6 | 0.00 | 0.00 | 0.00 | 89 | 1014.2 |
| 20260903000538 | 27 | 121 | 0.0 | 1.6 | 0.00 | 0.00 | 0.00 | 88 | 1014.1 |
| 20260903000032 | 27 | 62 | 0.0 | 0.0 | 0.00 | 0.00 | 0.00 | 87 | 1014.2 |
| 20260902235531 | 28 | 62 | 0.0 | 0.0 | 0.00 | 0.00 | 0.00 | 87 | 1014.2 |
| 20260902235027 | 28 | 66 | 0.0 | 0.0 | 0.00 | 0.00 | 0.00 | 86 | 1014.1 |
| 20260902234526 | 28 | 93 | 0.0 | 0.0 | 0.00 | 0.00 | 0.00 | 85 | 1014.1 |
| 20260902234025 | 28 | 62 | 0.0 | 1.6 | 0.00 | 0.00 | 0.00 | 84 | 1014.3 |
| 20260902233520 | 29 | 113 | 0.0 | 1.6 | 0.00 | 0.00 | 0.00 | 83 | 1014.3 |
| 20260902233014 | 29 | 64 | 0.0 | 1.6 | 0.00 | 0.00 | 0.00 | 81 | 1014.3 |
| 20260902232514 | 30 | 117 | 0.0 | 1.6 | 0.00 | 0.00 | 0.00 | 79 | 1014.1 |
| 20260902232008 | 30 | 62 | 0.0 | 1.6 | 0.00 | 0.00 | 0.00 | 77 | 1014.1 |
| 20260902231504 | 30 | 107 | 0.0 | 3.2 | 0.00 | 0.00 | 0.00 | 75 | 1014.3 |
| 20260902230958 | 31 | 89 | 0.0 | 1.6 | 0.00 | 0.00 | 0.00 | 73 | 1014.4 |
| 20260902230458 | 31 | 93 | 0.0 | 1.6 | 0.00 | 0.00 | 0.00 | 72 | 1014.4 |
| 20260902225956 | 31 | 111 | 1.6 | 3.2 | 0.00 | 0.00 | 0.00 | 72 | 1014.1 |
| 20260902225452 | 31 | 148 | 3.2 | 3.2 | 0.00 | 0.00 | 0.00 | 71 | 1014.3 |
| 20260902224951 | 31 | 124 | 0.0 | 3.2 | 0.00 | 0.00 | 0.00 | 71 | 1014.3 |
| 20260902224450 | 31 | 129 | 0.0 | 0.0 | 0.00 | 0.00 | 0.00 | 70 | 1014.1 |
| 20260902223948 | 31 | 143 | 0.0 | 3.2 | 0.00 | 0.00 | 0.00 | 69 | 1014.3 |
| 20260902223443 | 32 | 150 | 3.2 | 4.8 | 0.00 | 0.00 | 0.00 | 68 | 1014.1 |
| 20260902222942 | 32 | 135 | 1.6 | 3.2 | 0.00 | 0.00 | 0.00 | 68 | 1014.1 |
| 20260902222441 | 32 | 125 | 1.6 | 3.2 | 0.00 | 0.00 | 0.00 | 68 | 1014.4 |
| 20260902221940 | 32 | 138 | 3.2 | 4.8 | 0.00 | 0.00 | 0.00 | 67 | 1014.2 |
| 20260902221439 | 32 | 152 | 1.6 | 9.7 | 0.00 | 0.00 | 0.00 | 68 | 1014.2 |
| 20260902220935 | 32 | 141 | 4.8 | 4.8 | 0.00 | 0.00 | 0.00 | 67 | 1014.2 |
| 20260902220435 | 32 | 140 | 1.6 | 4.8 | 0.00 | 0.00 | 0.00 | 66 | 1014.3 |
| 20260902215930 | 32 | 112 | 0.0 | 3.2 | 0.00 | 0.00 | 0.00 | 67 | 1013.9 |
| 20260902215426 | 32 | 114 | 3.2 | 4.8 | 0.00 | 0.00 | 0.00 | 66 | 1014.4 |
| 20260902214916 | 32 | 154 | 3.2 | 6.4 | 0.00 | 0.00 | 0.00 | 65 | 1014.3 |
| 20260902214415 | 32 | 226 | 3.2 | 6.4 | 0.00 | 0.00 | 0.00 | 65 | 1014.1 |
| 20260902213915 | 32 | 153 | 0.0 | 3.2 | 0.00 | 0.00 | 0.00 | 65 | 1014.2 |
| 20260902213411 | 33 | 156 | 0.0 | 4.8 | 0.00 | 0.00 | 0.00 | 64 | 1014.4 |
| 20260902212909 | 33 | 145 | 1.6 | 4.8 | 0.00 | 0.00 | 0.00 | 64 | 1014.3 |
| 20260902212406 | 33 | 119 | 3.2 | 3.2 | 0.00 | 0.00 | 0.00 | 64 | 1014.3 |
| 20260902211902 | 33 | 125 | 3.2 | 4.8 | 0.00 | 0.00 | 0.00 | 64 | 1014.3 |
| 20260902211358 | 33 | 139 | 0.0 | 4.8 | 0.00 | 0.00 | 0.00 | 65 | 1014.4 |
| 20260902210853 | 33 | 111 | 3.2 | 8.0 | 0.00 | 0.00 | 0.00 | 63 | 1014.3 |
| 20260902210352 | 33 | 144 | 3.2 | 6.4 | 0.00 | 0.00 | 0.00 | 63 | 1014.2 |
| 20260902205851 | 33 | 111 | 1.6 | 3.2 | 0.00 | 0.00 | 0.00 | 63 | 1014.5 |
| 20260902205346 | 33 | 118 | 1.6 | 6.4 | 0.00 | 0.00 | 0.00 | 62 | 1014.6 |
| 20260902204842 | 34 | 71 | 3.2 | 6.4 | 0.00 | 0.00 | 0.00 | 61 | 1014.4 |
| 20260902204341 | 34 | 161 | 3.2 | 3.2 | 0.00 | 0.00 | 0.00 | 61 | 1014.4 |
| 20260902203837 | 34 | 34 | 1.6 | 6.4 | 0.00 | 0.00 | 0.00 | 59 | 1014.5 |
| 20260902203332 | 34 | 117 | 3.2 | 6.4 | 0.00 | 0.00 | 0.00 | 60 | 1014.4 |
| 20260902202831 | 35 | 174 | 4.8 | 8.0 | 0.00 | 0.00 | 0.00 | 57 | 1014.5 |
| 20260902202328 | 35 | 133 | 6.4 | 8.0 | 0.00 | 0.00 | 0.00 | 58 | 1014.5 |
| 20260902201824 | 35 | 132 | 3.2 | 4.8 | 0.00 | 0.00 | 0.00 | 60 | 1014.7 |
| 20260902201324 | 35 | 114 | 1.6 | 6.4 | 0.00 | 0.00 | 0.00 | 63 | 1014.5 |
| 20260902200819 | 34 | 120 | 1.6 | 3.2 | 0.00 | 0.00 | 0.00 | 61 | 1014.6 |
| 20260902200314 | 34 | 116 | 3.2 | 8.0 | 0.00 | 0.00 | 0.00 | 59 | 1014.6 |
| 20260902195810 | 35 | 217 | 0.0 | 4.8 | 0.00 | 0.00 | 0.00 | 58 | 1014.7 |
| 20260902195309 | 35 | 181 | 3.2 | 4.8 | 0.00 | 0.00 | 0.00 | 60 | 1014.7 |
| 20260902194804 | 34 | 183 | 3.2 | 6.4 | 0.00 | 0.00 | 0.00 | 58 | 1014.8 |
| 20260902194258 | 35 | 192 | 6.4 | 9.7 | 0.00 | 0.00 | 0.00 | 57 | 1014.7 |
| 20260902193754 | 35 | 156 | 3.2 | 6.4 | 0.00 | 0.00 | 0.00 | 58 | 1014.9 |
| 20260902193250 | 35 | 120 | 1.6 | 8.0 | 0.00 | 0.00 | 0.00 | 57 | 1015.0 |
| 20260902192748 | 35 | 124 | 3.2 | 4.8 | 0.00 | 0.00 | 0.00 | 59 | 1014.9 |
| 20260902192247 | 35 | 113 | 0.0 | 6.4 | 0.00 | 0.00 | 0.00 | 59 | 1015.1 |
| 20260902191747 | 34 | 97 | 1.6 | 6.4 | 0.00 | 0.00 | 0.00 | 62 | 1015.0 |
| 20260902191242 | 34 | 83 | 3.2 | 9.7 | 0.00 | 0.00 | 0.00 | 61 | 1015.0 |
| 20260902190737 | 34 | 186 | 3.2 | 6.4 | 0.00 | 0.00 | 0.00 | 59 | 1015.0 |
| 20260902190237 | 34 | 117 | 3.2 | 11.3 | 0.00 | 0.00 | 0.00 | 59 | 1015.0 |
| 20260902185733 | 34 | 153 | 3.2 | 9.7 | 0.00 | 0.00 | 0.00 | 59 | 1015.2 |
| 20260902185228 | 34 | 146 | 0.0 | 6.4 | 0.00 | 0.00 | 0.00 | 60 | 1015.2 |
| 20260902184724 | 34 | 161 | 3.2 | 4.8 | 0.00 | 0.00 | 0.00 | 61 | 1015.0 |
| 20260902184219 | 34 | 156 | 1.6 | 6.4 | 0.00 | 0.00 | 0.00 | 62 | 1015.0 |
| 20260902183715 | 34 | 6 | 3.2 | 6.4 | 0.00 | 0.00 | 0.00 | 59 | 1015.0 |
| 20260902183211 | 34 | 145 | 0.0 | 8.0 | 0.00 | 0.00 | 0.00 | 59 | 1015.2 |
| 20260902182707 | 34 | 148 | 1.6 | 9.7 | 0.00 | 0.00 | 0.00 | 62 | 1015.0 |
| 20260902182203 | 34 | 174 | 1.6 | 6.4 | 0.00 | 0.00 | 0.00 | 60 | 1015.1 |
| 20260902181659 | 34 | 180 | 3.2 | 6.4 | 0.00 | 0.00 | 0.00 | 61 | 1015.4 |
| 20260902181200 | 33 | 102 | 0.0 | 8.0 | 0.00 | 0.00 | 0.00 | 63 | 1015.3 |
| 20260902180659 | 33 | 195 | 4.8 | 6.4 | 0.00 | 0.00 | 0.00 | 60 | 1015.5 |
| 20260902180155 | 33 | 116 | 0.0 | 6.4 | 0.00 | 0.00 | 0.00 | 63 | 1015.6 |
| 20260902175655 | 34 | 170 | 4.8 | 8.0 | 0.00 | 0.00 | 0.00 | 59 | 1015.8 |
| 20260902175151 | 34 | 114 | 1.6 | 4.8 | 0.00 | 0.00 | 0.00 | 61 | 1015.7 |
| 20260902174647 | 34 | 139 | 0.0 | 3.2 | 0.00 | 0.00 | 0.00 | 61 | 1015.7 |
| 20260902174143 | 34 | 153 | 3.2 | 4.8 | 0.00 | 0.00 | 0.00 | 59 | 1015.6 |
| 20260902173638 | 34 | 148 | 1.6 | 3.2 | 0.00 | 0.00 | 0.00 | 63 | 1015.7 |
| 20260902173133 | 33 | 96 | 3.2 | 3.2 | 0.00 | 0.00 | 0.00 | 64 | 1015.9 |
| 20260902172627 | 33 | 166 | 1.6 | 6.4 | 0.00 | 0.00 | 0.00 | 62 | 1016.2 |
| 20260902172126 | 33 | 133 | 3.2 | 6.4 | 0.00 | 0.00 | 0.00 | 61 | 1016.0 |
| 20260902171622 | 33 | 58 | 3.2 | 6.4 | 0.00 | 0.00 | 0.00 | 60 | 1016.0 |
| 20260902171118 | 33 | 169 | 3.2 | 4.8 | 0.00 | 0.00 | 0.00 | 60 | 1016.4 |
| 20260902170613 | 33 | 173 | 6.4 | 6.4 | 0.00 | 0.00 | 0.00 | 61 | 1015.8 |
| 20260902170109 | 33 | 188 | 3.2 | 4.8 | 0.00 | 0.00 | 0.00 | 60 | 1015.9 |
| 20260902165608 | 33 | 50 | 1.6 | 4.8 | 0.00 | 0.00 | 0.00 | 63 | 1016.1 |
| 20260902165103 | 33 | 134 | 3.2 | 6.4 | 0.00 | 0.00 | 0.00 | 64 | 1016.2 |
| 20260902164558 | 33 | 97 | 3.2 | 3.2 | 0.00 | 0.00 | 0.00 | 66 | 1016.3 |
| 20260902164056 | 33 | 217 | 1.6 | 8.0 | 0.00 | 0.00 | 0.00 | 62 | 1016.1 |
| 20260902163553 | 33 | 189 | 3.2 | 4.8 | 0.00 | 0.00 | 0.00 | 63 | 1016.3 |
| 20260902163051 | 33 | 158 | 3.2 | 3.2 | 0.00 | 0.00 | 0.00 | 65 | 1016.1 |
| 20260902162545 | 32 | 150 | 1.6 | 8.0 | 0.00 | 0.00 | 0.00 | 64 | 1016.3 |
| 20260902162040 | 33 | 154 | 4.8 | 8.0 | 0.00 | 0.00 | 0.00 | 63 | 1016.5 |
| 20260902161540 | 33 | 146 | 4.8 | 6.4 | 0.00 | 0.00 | 0.00 | 63 | 1016.6 |
| 20260902161036 | 33 | 131 | 3.2 | 3.2 | 0.00 | 0.00 | 0.00 | 63 | 1016.6 |
| 20260902160532 | 33 | 136 | 0.0 | 8.0 | 0.00 | 0.00 | 0.00 | 64 | 1016.5 |
| 20260902160027 | 32 | 127 | 3.2 | 3.2 | 0.00 | 0.00 | 0.00 | 66 | 1016.5 |
| 20260902155520 | 33 | 107 | 1.6 | 4.8 | 0.00 | 0.00 | 0.00 | 64 | 1016.5 |
| 20260902155019 | 32 | 124 | 4.8 | 4.8 | 0.00 | 0.00 | 0.00 | 65 | 1016.4 |
| 20260902154514 | 32 | 132 | 3.2 | 6.4 | 0.00 | 0.00 | 0.00 | 65 | 1016.5 |
| 20260902154009 | 32 | 111 | 0.0 | 4.8 | 0.00 | 0.00 | 0.00 | 65 | 1016.5 |
| 20260902153507 | 32 | 149 | 4.8 | 6.4 | 0.00 | 0.00 | 0.00 | 63 | 1016.6 |
| 20260902153003 | 32 | 185 | 0.0 | 3.2 | 0.00 | 0.00 | 0.00 | 64 | 1016.6 |
| 20260902152500 | 32 | 132 | 1.6 | 6.4 | 0.00 | 0.00 | 0.00 | 66 | 1016.6 |
| 20260902151954 | 32 | 89 | 0.0 | 4.8 | 0.00 | 0.00 | 0.00 | 67 | 1016.5 |
| 20260902151451 | 32 | 120 | 3.2 | 3.2 | 0.00 | 0.00 | 0.00 | 65 | 1016.6 |
| 20260902150950 | 32 | 208 | 0.0 | 6.4 | 0.00 | 0.00 | 0.00 | 65 | 1016.7 |
| 20260902150446 | 32 | 124 | 1.6 | 4.8 | 0.00 | 0.00 | 0.00 | 66 | 1016.3 |
| 20260902145946 | 31 | 87 | 3.2 | 6.4 | 0.00 | 0.00 | 0.00 | 67 | 1016.6 |
| 20260902145441 | 31 | 147 | 1.6 | 4.8 | 0.00 | 0.00 | 0.00 | 67 | 1016.7 |
| 20260902144935 | 31 | 152 | 0.0 | 4.8 | 0.00 | 0.00 | 0.00 | 67 | 1016.4 |
| 20260902144432 | 31 | 119 | 3.2 | 4.8 | 0.00 | 0.00 | 0.00 | 66 | 1016.5 |
| 20260902143932 | 31 | 104 | 0.0 | 3.2 | 0.00 | 0.00 | 0.00 | 67 | 1016.5 |
| 20260902143427 | 31 | 115 | 1.6 | 3.2 | 0.00 | 0.00 | 0.00 | 69 | 1016.5 |
| 20260902142922 | 30 | 99 | 1.6 | 3.2 | 0.00 | 0.00 | 0.00 | 71 | 1016.3 |
| 20260902142418 | 29 | 138 | 3.2 | 9.7 | 0.00 | 0.00 | 0.00 | 73 | 1016.5 |
| 20260902141914 | 28 | 114 | 3.2 | 4.8 | 0.00 | 0.00 | 0.00 | 74 | 1016.4 |
| 20260902141409 | 28 | 133 | 3.2 | 3.2 | 0.00 | 0.00 | 0.00 | 75 | 1016.3 |
| 20260902140908 | 28 | 122 | 3.2 | 8.0 | 0.00 | 0.00 | 0.00 | 76 | 1016.5 |
| 20260902140404 | 28 | 134 | 1.6 | 4.8 | 0.00 | 0.00 | 0.00 | 76 | 1016.3 |
| 20260902135904 | 27 | 42 | 1.6 | 3.2 | 0.00 | 0.00 | 0.00 | 79 | 1016.4 |
| 20260902135400 | 27 | 128 | 3.2 | 3.2 | 0.00 | 0.00 | 0.00 | 77 | 1016.4 |
| 20260902134858 | 27 | 148 | 0.0 | 4.8 | 0.00 | 0.00 | 0.00 | 78 | 1016.6 |
| 20260902134358 | 27 | 109 | 3.2 | 3.2 | 0.00 | 0.00 | 0.00 | 80 | 1016.5 |
| 20260902133855 | 27 | 4 | 0.0 | 3.2 | 0.00 | 0.00 | 0.00 | 81 | 1016.5 |
| 20260902133354 | 26 | 129 | 3.2 | 6.4 | 0.00 | 0.00 | 0.00 | 81 | 1016.7 |
| 20260902132849 | 26 | 117 | 1.6 | 6.4 | 0.00 | 0.00 | 0.00 | 82 | 1016.7 |
| 20260902132344 | 26 | 87 | 1.6 | 3.2 | 0.00 | 0.00 | 0.00 | 81 | 1017.0 |
| 20260902131840 | 26 | 118 | 0.0 | 3.2 | 0.00 | 0.00 | 0.00 | 82 | 1016.7 |
| 20260902131337 | 26 | 150 | 4.8 | 4.8 | 0.00 | 0.00 | 0.00 | 80 | 1016.8 |
| 20260902130836 | 26 | 122 | 3.2 | 4.8 | 0.00 | 0.00 | 0.00 | 80 | 1016.8 |
| 20260902130332 | 26 | 138 | 1.6 | 4.8 | 0.00 | 0.00 | 0.00 | 81 | 1016.9 |
| 20260902125827 | 26 | 207 | 3.2 | 4.8 | 0.00 | 0.00 | 0.00 | 82 | 1017.1 |
| 20260902125323 | 25 | 93 | 1.6 | 1.6 | 0.00 | 0.00 | 0.00 | 86 | 1017.1 |
| 20260902124819 | 24 | 128 | 3.2 | 6.4 | 0.00 | 0.00 | 0.00 | 88 | 1016.9 |
| 20260902124315 | 23 | 115 | 3.2 | 3.2 | 0.00 | 0.00 | 0.00 | 92 | 1016.9 |
| 20260902123809 | 23 | 112 | 3.2 | 4.8 | 0.00 | 0.00 | 0.00 | 94 | 1017.0 |
| 20260902123306 | 22 | 102 | 1.6 | 3.2 | 0.00 | 0.00 | 0.00 | 96 | 1017.0 |
| 20260902122804 | 22 | 112 | 3.2 | 3.2 | 0.00 | 0.00 | 0.00 | 97 | 1016.9 |
| 20260902122301 | 22 | 103 | 0.0 | 3.2 | 0.00 | 0.00 | 0.00 | 97 | 1017.0 |
| 20260902121800 | 22 | 119 | 1.6 | 3.2 | 0.00 | 0.00 | 0.00 | 97 | 1016.9 |
| 20260902121255 | 22 | 133 | 3.2 | 4.8 | 0.00 | 0.00 | 0.00 | 98 | 1016.7 |
| 20260902120751 | 22 | 105 | 1.6 | 3.2 | 0.00 | 0.00 | 0.00 | 98 | 1016.7 |
| 20260902120247 | 22 | 101 | 3.2 | 3.2 | 0.00 | 0.00 | 0.00 | 98 | 1016.8 |
| 20260902115747 | 22 | 99 | 1.6 | 3.2 | 0.00 | 0.00 | 0.00 | 98 | 1017.0 |
| 20260902115244 | 22 | 115 | 1.6 | 3.2 | 0.00 | 0.00 | 0.00 | 98 | 1017.0 |
| 20260902114739 | 22 | 142 | 3.2 | 6.4 | 0.00 | 0.00 | 0.00 | 98 | 1016.8 |
| 20260902114236 | 22 | 180 | 0.0 | 3.2 | 0.00 | 0.00 | 0.00 | 98 | 1017.0 |
| 20260902113735 | 22 | 114 | 1.6 | 3.2 | 0.00 | 0.00 | 0.00 | 98 | 1017.0 |
| 20260902113231 | 22 | 131 | 3.2 | 3.2 | 0.00 | 0.00 | 0.00 | 98 | 1016.8 |
| 20260902112730 | 22 | 145 | 1.6 | 3.2 | 0.00 | 0.00 | 0.00 | 98 | 1016.8 |
| 20260902112228 | 22 | 152 | 1.6 | 3.2 | 0.00 | 0.00 | 0.00 | 98 | 1016.7 |
| 20260902111722 | 21 | 105 | 0.0 | 3.2 | 0.00 | 0.00 | 0.00 | 98 | 1016.8 |
| 20260902111219 | 22 | 117 | 0.0 | 3.2 | 0.00 | 0.00 | 0.00 | 98 | 1016.7 |
| 20260902110714 | 21 | 91 | 0.0 | 3.2 | 0.00 | 0.00 | 0.00 | 97 | 1016.6 |
| 20260902110210 | 22 | 74 | 1.6 | 3.2 | 0.00 | 0.00 | 0.00 | 97 | 1016.6 |
| 20260902105709 | 22 | 76 | 1.6 | 3.2 | 0.00 | 0.00 | 0.00 | 97 | 1016.3 |
| 20260902105205 | 22 | 133 | 0.0 | 3.2 | 0.00 | 0.00 | 0.00 | 97 | 1016.6 |
| 20260902104700 | 22 | 100 | 0.0 | 3.2 | 0.00 | 0.00 | 0.00 | 97 | 1016.4 |
| 20260902104156 | 22 | 98 | 3.2 | 3.2 | 0.00 | 0.00 | 0.00 | 97 | 1016.4 |
| 20260902103655 | 22 | 127 | 3.2 | 3.2 | 0.00 | 0.00 | 0.00 | 97 | 1016.5 |
| 20260902103150 | 22 | 58 | 1.6 | 3.2 | 0.00 | 0.00 | 0.00 | 97 | 1016.4 |
| 20260902102646 | 22 | 113 | 0.0 | 3.2 | 0.00 | 0.00 | 0.00 | 97 | 1016.2 |
| 20260902102143 | 22 | 117 | 0.0 | 3.2 | 0.00 | 0.00 | 0.00 | 97 | 1016.2 |
| 20260902101638 | 22 | 89 | 0.0 | 3.2 | 0.00 | 0.00 | 0.00 | 97 | 1016.4 |
| 20260902101138 | 22 | 103 | 0.0 | 1.6 | 0.00 | 0.00 | 0.00 | 97 | 1016.3 |
| 20260902100632 | 22 | 91 | 1.6 | 3.2 | 0.00 | 0.00 | 0.00 | 97 | 1016.2 |
| 20260902100127 | 22 | 93 | 1.6 | 3.2 | 0.00 | 0.00 | 0.00 | 97 | 1016.2 |
| 20260902095626 | 22 | 97 | 0.0 | 3.2 | 0.00 | 0.00 | 0.00 | 97 | 1015.9 |
| 20260902095126 | 22 | 94 | 0.0 | 3.2 | 0.00 | 0.00 | 0.00 | 97 | 1016.0 |
| 20260902094621 | 22 | 85 | 1.6 | 3.2 | 0.00 | 0.00 | 0.00 | 97 | 1016.1 |
| 20260902094118 | 22 | 117 | 0.0 | 1.6 | 0.00 | 0.00 | 0.00 | 97 | 1016.0 |
| 20260902093617 | 22 | 130 | 0.0 | 3.2 | 0.00 | 0.00 | 0.00 | 97 | 1015.6 |
| 20260902093113 | 22 | 67 | 0.0 | 1.6 | 0.00 | 0.00 | 0.00 | 97 | 1016.0 |
| 20260902092613 | 22 | 92 | 0.0 | 3.2 | 0.00 | 0.00 | 0.00 | 97 | 1016.0 |
| 20260902092108 | 22 | 123 | 0.0 | 1.6 | 0.00 | 0.00 | 0.00 | 97 | 1015.9 |
| 20260902091603 | 22 | 135 | 0.0 | 3.2 | 0.00 | 0.00 | 0.00 | 97 | 1016.0 |
| 20260902091059 | 22 | 98 | 1.6 | 1.6 | 0.00 | 0.00 | 0.00 | 97 | 1016.0 |
| 20260902090555 | 22 | 96 | 0.0 | 3.2 | 0.00 | 0.00 | 0.00 | 97 | 1016.2 |
| 20260902090054 | 22 | 149 | 3.2 | 3.2 | 0.00 | 0.00 | 0.00 | 97 | 1015.9 |
| 20260902085553 | 22 | 89 | 1.6 | 3.2 | 0.00 | 0.00 | 0.00 | 97 | 1015.8 |
| 20260902085048 | 22 | 80 | 0.0 | 1.6 | 0.00 | 0.00 | 0.00 | 97 | 1016.0 |
| 20260902084545 | 22 | 129 | 1.6 | 3.2 | 0.00 | 0.00 | 0.00 | 97 | 1016.0 |
| 20260902084041 | 22 | 69 | 0.0 | 3.2 | 0.00 | 0.00 | 0.00 | 96 | 1016.1 |
| 20260902083531 | 23 | 89 | 1.6 | 1.6 | 0.00 | 0.00 | 0.00 | 97 | 1015.9 |
| 20260902083030 | 23 | 101 | 1.6 | 3.2 | 0.00 | 0.00 | 0.00 | 96 | 1016.0 |
| 20260902082526 | 23 | 100 | 1.6 | 1.6 | 0.00 | 0.00 | 0.00 | 97 | 1016.0 |
| 20260902082022 | 23 | 121 | 1.6 | 3.2 | 0.00 | 0.00 | 0.00 | 96 | 1016.1 |
| 20260902081519 | 23 | 94 | 0.0 | 3.2 | 0.00 | 0.00 | 0.00 | 96 | 1016.1 |
| 20260902081018 | 23 | 122 | 0.0 | 3.2 | 0.00 | 0.00 | 0.00 | 96 | 1015.8 |
| 20260902080514 | 23 | 106 | 1.6 | 3.2 | 0.00 | 0.00 | 0.00 | 96 | 1016.0 |
| 20260902080010 | 23 | 100 | 1.6 | 3.2 | 0.00 | 0.00 | 0.00 | 96 | 1016.0 |
| 20260902075504 | 23 | 120 | 0.0 | 3.2 | 0.00 | 0.00 | 0.00 | 96 | 1016.0 |
| 20260902075000 | 23 | 113 | 1.6 | 3.2 | 0.00 | 0.00 | 0.00 | 96 | 1015.7 |
| 20260902074455 | 23 | 77 | 1.6 | 3.2 | 0.00 | 0.00 | 0.00 | 96 | 1016.0 |
| 20260902073949 | 23 | 95 | 0.0 | 1.6 | 0.00 | 0.00 | 0.00 | 96 | 1015.9 |
| 20260902073445 | 23 | 89 | 0.0 | 1.6 | 0.00 | 0.00 | 0.00 | 96 | 1015.9 |
| 20260902072942 | 23 | 111 | 1.6 | 3.2 | 0.00 | 0.00 | 0.00 | 96 | 1015.8 |
| 20260902072437 | 23 | 136 | 3.2 | 3.2 | 0.00 | 0.00 | 0.00 | 96 | 1015.9 |
| 20260902071933 | 23 | 103 | 0.0 | 1.6 | 0.00 | 0.00 | 0.00 | 96 | 1015.8 |
| 20260902071433 | 23 | 118 | 1.6 | 3.2 | 0.00 | 0.00 | 0.00 | 96 | 1015.7 |
| 20260902070929 | 23 | 15 | 0.0 | 3.2 | 0.00 | 0.00 | 0.00 | 96 | 1015.9 |
| 20260902070425 | 23 | 124 | 0.0 | 3.2 | 0.00 | 0.00 | 0.00 | 96 | 1015.9 |
| 20260902065924 | 23 | 117 | 0.0 | 3.2 | 0.00 | 0.00 | 0.00 | 96 | 1015.9 |
| 20260902065419 | 23 | 118 | 1.6 | 3.2 | 0.00 | 0.00 | 0.00 | 96 | 1015.6 |
| 20260902064914 | 23 | 111 | 3.2 | 3.2 | 0.00 | 0.00 | 0.00 | 96 | 1016.0 |
| 20260902064409 | 23 | 136 | 1.6 | 1.6 | 0.00 | 0.00 | 0.00 | 96 | 1015.8 |
| 20260902063905 | 23 | 120 | 0.0 | 3.2 | 0.00 | 0.00 | 0.00 | 96 | 1015.8 |
| 20260902063405 | 23 | 116 | 1.6 | 3.2 | 0.00 | 0.00 | 0.00 | 96 | 1015.8 |
| 20260902062900 | 23 | 113 | 0.0 | 3.2 | 0.00 | 0.00 | 0.00 | 96 | 1015.8 |
| 20260902062359 | 23 | 129 | 0.0 | 1.6 | 0.00 | 0.00 | 0.00 | 96 | 1015.6 |
| 20260902061858 | 23 | 140 | 0.0 | 1.6 | 0.00 | 0.00 | 0.00 | 95 | 1015.8 |
| 20260902061354 | 24 | 140 | 1.6 | 1.6 | 0.00 | 0.00 | 0.00 | 96 | 1015.6 |
| 20260902060850 | 24 | 71 | 1.6 | 3.2 | 0.00 | 0.00 | 0.00 | 96 | 1015.8 |
| 20260902060345 | 24 | 113 | 1.6 | 1.6 | 0.00 | 0.00 | 0.00 | 96 | 1015.9 |
| 20260902055841 | 24 | 135 | 0.0 | 1.6 | 0.00 | 0.00 | 0.00 | 95 | 1015.9 |
| 20260902055337 | 24 | 103 | 0.0 | 3.2 | 0.00 | 0.00 | 0.00 | 95 | 1016.0 |
| 20260902054832 | 24 | 112 | 1.6 | 3.2 | 0.00 | 0.00 | 0.00 | 95 | 1015.9 |
| 20260902054328 | 24 | 101 | 0.0 | 3.2 | 0.00 | 0.00 | 0.00 | 95 | 1015.9 |
| 20260902053823 | 24 | 153 | 1.6 | 3.2 | 0.00 | 0.00 | 0.00 | 95 | 1015.9 |
| 20260902053318 | 24 | 121 | 1.6 | 3.2 | 0.00 | 0.00 | 0.00 | 94 | 1015.7 |
| 20260902052817 | 24 | 130 | 0.0 | 1.6 | 0.00 | 0.00 | 0.00 | 94 | 1015.9 |
| 20260902052313 | 25 | 123 | 1.6 | 1.6 | 0.00 | 0.00 | 0.00 | 94 | 1015.8 |
| 20260902051809 | 25 | 106 | 1.6 | 1.6 | 0.00 | 0.00 | 0.00 | 94 | 1015.8 |
| 20260902051307 | 25 | 136 | 0.0 | 1.6 | 0.00 | 0.00 | 0.00 | 94 | 1016.2 |
| 20260902050803 | 25 | 120 | 1.6 | 1.6 | 0.00 | 0.00 | 0.00 | 94 | 1015.9 |
| 20260902050303 | 25 | 57 | 0.0 | 3.2 | 0.00 | 0.00 | 0.00 | 94 | 1016.0 |
| 20260902045802 | 25 | 131 | 0.0 | 1.6 | 0.00 | 0.00 | 0.00 | 94 | 1015.8 |
| 20260902045258 | 25 | 122 | 0.0 | 3.2 | 0.00 | 0.00 | 0.00 | 94 | 1015.9 |
| 20260902044755 | 25 | 108 | 1.6 | 1.6 | 0.00 | 0.00 | 0.00 | 93 | 1015.9 |
| 20260902044249 | 25 | 123 | 0.0 | 1.6 | 0.00 | 0.00 | 0.00 | 93 | 1015.8 |
| 20260902043744 | 25 | 116 | 0.0 | 3.2 | 0.00 | 0.00 | 0.00 | 94 | 1015.8 |
| 20260902043240 | 25 | 127 | 0.0 | 3.2 | 0.00 | 0.00 | 0.00 | 94 | 1015.8 |
| 20260902042740 | 25 | 116 | 0.0 | 3.2 | 0.00 | 0.00 | 0.00 | 95 | 1015.7 |
| 20260902042240 | 25 | 110 | 3.2 | 3.2 | 0.00 | 0.00 | 0.00 | 95 | 1015.9 |
| 20260902041736 | 25 | 116 | 1.6 | 3.2 | 0.00 | 0.00 | 0.00 | 96 | 1015.8 |
| 20260902041235 | 25 | 103 | 1.6 | 3.2 | 0.00 | 0.00 | 0.00 | 97 | 1015.9 |
| 20260902040734 | 25 | 109 | 3.2 | 3.2 | 0.00 | 0.00 | 0.00 | 97 | 1015.7 |
| 20260902040230 | 25 | 114 | 1.6 | 3.2 | 0.00 | 0.00 | 0.00 | 97 | 1015.7 |
| 20260902035728 | 25 | 144 | 0.0 | 1.6 | 0.00 | 0.05 | 0.05 | 97 | 1015.8 |
| 20260902035224 | 25 | 117 | 0.0 | 3.2 | 0.00 | 0.05 | 0.05 | 97 | 1015.7 |
| 20260902034723 | 25 | 127 | 1.6 | 3.2 | 0.00 | 0.05 | 0.05 | 97 | 1015.8 |
| 20260902034218 | 24 | 95 | 1.6 | 1.6 | 0.00 | 0.05 | 0.05 | 97 | 1015.7 |
| 20260902033716 | 24 | 122 | 1.6 | 1.6 | 0.00 | 0.05 | 0.05 | 97 | 1015.7 |
| 20260902033212 | 24 | 112 | 1.6 | 1.6 | 0.00 | 0.05 | 0.05 | 97 | 1015.8 |
| 20260902032710 | 24 | 113 | 1.6 | 1.6 | 0.00 | 0.05 | 0.05 | 97 | 1015.7 |
| 20260902032206 | 24 | 77 | 0.0 | 1.6 | 0.00 | 0.05 | 0.05 | 97 | 1015.5 |
| 20260902031706 | 24 | 117 | 1.6 | 1.6 | 0.00 | 0.05 | 0.05 | 97 | 1015.9 |
| 20260902031201 | 24 | 114 | 0.0 | 1.6 | 0.00 | 0.05 | 0.05 | 97 | 1015.7 |
| 20260902030657 | 25 | 101 | 1.6 | 1.6 | 0.00 | 0.05 | 0.05 | 97 | 1015.8 |
| 20260902030156 | 25 | 124 | 1.6 | 3.2 | 0.00 | 0.05 | 0.05 | 97 | 1015.5 |
| 20260902025655 | 25 | 119 | 0.0 | 1.6 | 0.00 | 0.05 | 0.05 | 97 | 1015.7 |
| 20260902025151 | 25 | 104 | 1.6 | 1.6 | 0.00 | 0.05 | 0.05 | 97 | 1015.5 |
| 20260902024646 | 25 | 120 | 0.0 | 1.6 | 0.00 | 0.05 | 0.05 | 97 | 1015.6 |
| 20260902024141 | 25 | 118 | 0.0 | 1.6 | 0.00 | 0.05 | 0.05 | 97 | 1015.9 |
| 20260902023638 | 25 | 124 | 0.0 | 1.6 | 0.00 | 0.05 | 0.05 | 97 | 1015.7 |
| 20260902023137 | 25 | 95 | 0.0 | 1.6 | 0.00 | 0.05 | 0.05 | 97 | 1015.8 |
| 20260902022637 | 25 | 124 | 0.0 | 1.6 | 0.00 | 0.05 | 0.05 | 97 | 1015.7 |
| 20260902022133 | 25 | 120 | 0.0 | 1.6 | 0.00 | 0.05 | 0.05 | 97 | 1015.7 |
| 20260902021628 | 25 | 95 | 0.0 | 1.6 | 0.00 | 0.05 | 0.05 | 96 | 1015.7 |
| 20260902021128 | 25 | 112 | 1.6 | 1.6 | 0.00 | 0.05 | 0.05 | 97 | 1015.9 |
| 20260902020624 | 25 | 116 | 0.0 | 1.6 | 0.00 | 0.05 | 0.05 | 96 | 1015.8 |
| 20260902020120 | 25 | 75 | 0.0 | 0.0 | 0.00 | 0.05 | 0.05 | 96 | 1015.8 |
| 20260902015615 | 25 | 129 | 0.0 | 1.6 | 0.00 | 0.05 | 0.05 | 96 | 1015.8 |
| 20260902015111 | 25 | 117 | 0.0 | 1.6 | 0.00 | 0.05 | 0.05 | 96 | 1015.7 |
| 20260902014607 | 25 | 89 | 0.0 | 1.6 | 0.00 | 0.05 | 0.05 | 96 | 1015.8 |
| 20260902014102 | 25 | 104 | 0.0 | 1.6 | 0.00 | 0.05 | 0.05 | 96 | 1015.9 |
| 20260902013601 | 25 | 91 | 1.6 | 1.6 | 0.00 | 0.05 | 0.05 | 96 | 1015.6 |
| 20260902013057 | 25 | 55 | 0.0 | 1.6 | 0.00 | 0.05 | 0.05 | 96 | 1015.8 |
| 20260902012554 | 25 | 89 | 0.0 | 1.6 | 0.00 | 0.05 | 0.05 | 95 | 1015.6 |
| 20260902012054 | 25 | 113 | 0.0 | 1.6 | 0.00 | 0.05 | 0.05 | 95 | 1015.6 |
| 20260902011549 | 25 | 89 | 0.0 | 1.6 | 0.00 | 0.05 | 0.05 | 95 | 1015.5 |